User: anonymous   Login
Location: Unspecified
(0.0000°N, 0.0000°E)
Time: 11:31:40
(UTC+01:00)
Language:

ITAMSAT 1 - Orbit

View from above orbital plane
View from above orbital plane
View from above satellite
View from above satellite

Ground track
Ground track

The orbit data is extracted from the following two-line orbital elements,

1 22826U 93061D   16341.84943763  .00000030  00000-0  29046-4 0  9996
2 22826  98.7789 299.4727 0009234 157.6805 202.4780 14.30305896210083
Epoch (UTC): 06 December 2016 20:23:11
Eccentricity: 0.0009234
inclination: 98.7789°
perigee height: 784 km
apogee height: 797 km
right ascension of ascending node: 299.4727°
argument of perigee: 157.6805°
revolutions per day: 14.30305896
mean anomaly at epoch: 202.4780°
orbit number at epoch: 21008

The dashed part of the orbit path shows where the satellite is in the earth's shadow,  

DLR